マクノート彗星

446P/McNaught (2022)

English version
Home page
Updated on November 26, 2022

---------------------------------------------------------------------

・ プロフィール

符号 446P/2022 G2
検出日 2022年6月28日、4月10日
検出光度 20.9等、20.9等
検出者 Pan-STARRS 2 telescope (Haleakala), Hidetaka Sato (Siding Spring, NSW, Australia)

・ 写真集

・ 軌道要素

Epoch 2022 Aug. 9.0 TT = JDT 2459800.5
T 2022 May 29.64027 TT                                  Rudenko
q   1.6139205            (2000.0)            P               Q
n   0.10072835     Peri.  344.74929     +0.78332786     +0.61098860
a   4.5747592      Node   336.41373     -0.53620580     +0.57105146
e   0.6472119      Incl.   16.61508     -0.31445318     +0.54826377
P   9.78
>From 386 observations 2012 July 23-2022 Nov. 1, mean residual 0".6.

・ 光度変化

        m1 = 16.5 + 5 logΔ + 10.0 log r

---------------------------------------------------------------------

軌道要素はM.P.E.C. 2022-V95に掲載されたものです。
光度グラフはComet for Windowsで作成したものです。

---------------------------------------------------------------------

Copyright(C) Seiichi Yoshida (comet@aerith.net). All rights reserved.